User: anonymous   Login
Location: Champs
(48.8539°N, 2.6040°E)
Time: 11:59:35
(UTC+00:00)
Language:

Cosmos 2056 Rocket - Orbit

View from above orbital plane
View from above orbital plane
View from above satellite
View from above satellite

Ground track
Ground track

The orbit data is extracted from the following two-line orbital elements,

1 20433U 90004B   22272.63845282  .00000252  00000-0  94328-4 0  9997
2 20433  74.0367  51.6448 0039934  69.5059 301.6934 14.36255810712046
Epoch (UTC): 29 September 2022 15:19:22
Eccentricity: 0.0039934
inclination: 74.0367°
perigee height: 742 km
apogee height: 799 km
right ascension of ascending node: 51.6448°
argument of perigee: 69.5059°
revolutions per day: 14.36255810
mean anomaly at epoch: 301.6934°
orbit number at epoch: 71204

The dashed part of the orbit path shows where the satellite is in the earth's shadow,  

DLR